TimeCST,TemperatureF,Dew PointF,Humidity,Sea Level PressureIn,VisibilityMPH,Wind Direction,Wind SpeedMPH,Gust SpeedMPH,PrecipitationIn,Events,Conditions,WindDirDegrees,DateUTC
12:53 AM,81.0,69.1,67,30.08,-9999.0,ESE,11.5,18.4,N/A,,Unknown,120,2013-01-10 06:53:00
1:53 AM,79.0,68.0,69,30.02,-9999.0,ESE,15.0,25.3,N/A,,Unknown,120,2013-01-10 07:53:00
2:53 AM,79.0,69.1,72,30.02,-9999.0,ESE,15.0,26.5,0.01,,Unknown,120,2013-01-10 08:53:00
3:53 AM,79.0,68.0,69,29.99,-9999.0,ESE,15.0,26.5,N/A,,Unknown,120,2013-01-10 09:53:00
4:53 AM,78.1,68.0,71,29.93,-9999.0,ESE,18.4,28.8,N/A,,Unknown,120,2013-01-10 10:53:00
5:53 AM,77.0,68.0,74,30.00,-9999.0,Calm,Calm,-,N/A,,Unknown,0,2013-01-10 11:53:00
6:53 AM,73.9,66.0,76,30.04,-9999.0,Variable,4.6,-,1.82,,Unknown,0,2013-01-10 12:53:00
7:53 AM,73.9,63.0,68,30.06,-9999.0,NNW,8.1,-,0.49,,Unknown,340,2013-01-10 13:53:00
8:53 AM,73.9,64.0,71,30.10,-9999.0,NW,3.5,-,0.15,,Unknown,310,2013-01-10 14:53:00
9:53 AM,71.1,64.0,78,30.06,-9999.0,NE,8.1,-,0.24,,Unknown,40,2013-01-10 15:53:00
10:53 AM,72.0,64.0,76,30.07,-9999.0,Variable,4.6,-,0.19,,Unknown,0,2013-01-10 16:53:00
11:53 AM,79.0,64.0,60,30.09,-9999.0,SE,5.8,-,0.11,,Unknown,130,2013-01-10 17:53:00
12:53 PM,77.0,64.0,64,30.05,-9999.0,SE,6.9,-,0.09,,Unknown,140,2013-01-10 18:53:00
1:53 PM,72.0,62.1,71,30.00,-9999.0,East,6.9,-,0.05,,Unknown,100,2013-01-10 19:53:00
2:53 PM,75.9,63.0,64,30.04,-9999.0,SE,8.1,-,0.02,,Unknown,130,2013-01-10 20:53:00
3:53 PM,73.0,61.0,66,30.05,-9999.0,SE,5.8,-,N/A,,Unknown,140,2013-01-10 21:53:00
4:53 PM,73.9,62.1,66,30.02,-9999.0,SE,4.6,-,N/A,,Unknown,130,2013-01-10 22:53:00
5:53 PM,75.9,62.1,62,30.02,-9999.0,SE,6.9,-,N/A,,Unknown,140,2013-01-10 23:53:00
6:53 PM,75.9,61.0,60,30.02,-9999.0,SE,6.9,-,N/A,,Unknown,130,2013-01-11 00:53:00
7:53 PM,75.0,62.1,64,30.03,-9999.0,SE,8.1,-,N/A,,Unknown,140,2013-01-11 01:53:00
8:53 PM,79.0,63.0,58,30.04,-9999.0,SE,6.9,-,N/A,,Unknown,130,2013-01-11 02:53:00
9:53 PM,77.0,61.0,58,30.04,-9999.0,SE,4.6,-,N/A,,Unknown,140,2013-01-11 03:53:00
10:53 PM,78.1,62.1,58,30.05,-9999.0,SE,4.6,-,N/A,,Unknown,140,2013-01-11 04:53:00
11:53 PM,73.9,63.0,68,30.05,-9999.0,SSE,3.5,-,N/A,,Unknown,160,2013-01-11 05:53:00